Regional Weather Roundup
Issued by NWS

Home | Current Version | Previous Version | Text Only | Print | Product List | Glossary Off
Versions: 1 2 3 4 5 6 7 8 9 10 11 12 13 14 15 16 17 18 19 20 21 22 23 24 25 26 27 28 29 30 31 32 33 34 35 36 37 38 39 40 41 42 43 44 45 46 47 48 49 50

000
ASUS43 KMKX 251221
RWRWI

WISCONSIN REGIONAL WEATHER ROUNDUP
NATIONAL WEATHER SERVICE MILWAUKEE/SULLIVAN WI
700 AM CDT SAT OCT 25 2014

NOTE: "FAIR" INDICATES FEW OR NO CLOUDS BELOW 12,000 FEET WITH NO
SIGNIFICANT WEATHER AND/OR OBSTRUCTIONS TO VISIBILITY.

WIZ001-002-006>008-014>016-023>028-251300-
NORTHWEST WISCONSIN

CITY           SKY/WX    TMP DP  RH WIND       PRES   REMARKS
SUPERIOR ARPT  CLEAR     49  34  56 W9G16     29.88R
6HR MIN TEMP:  45; 6HR MAX TEMP:  53;

ASHLAND        CLEAR     46  35  65 SW8       29.84R
6HR MIN TEMP:  46; 6HR MAX TEMP:  54;

HAYWARD        CLEAR     49  34  56 W5        29.90R
6HR MIN TEMP:  49; 6HR MAX TEMP:  55;

SIREN          CLEAR     48  34  58 W9        29.94R
6HR MIN TEMP:  47; 6HR MAX TEMP:  54;

CUMBERLAND     CLEAR     45  34  65 W10       29.93R
RICE LAKE      CLEAR     45  35  69 W5        29.93S
6HR MIN TEMP:  44; 6HR MAX TEMP:  49;

CHETEK         CLEAR     49  37  63 W7        29.92S
6HR MIN TEMP:  48; 6HR MAX TEMP:  53;

LADYSMITH      CLEAR     49  37  61 W8        29.90S
6HR MIN TEMP:  46; 6HR MAX TEMP:  55;

EAU CLAIRE     CLEAR     43  37  79 W5        29.92S
6HR MIN TEMP:  43; 6HR MAX TEMP:  50;

MENOMONIE      CLEAR     49  37  61 W7        29.94R
6HR MIN TEMP:  49; 6HR MAX TEMP:  54;

NEW RICHMOND   CLEAR     47  35  62 W8        29.96S
6HR MIN TEMP:  47; 6HR MAX TEMP:  52;

OSCEOLA        CLEAR     49  35  58 W9        29.99R
6HR MIN TEMP:  49; 6HR MAX TEMP:  55;

$$

WIZ003>005-009-010-017-018-251300-
NORTH CENTRAL WISCONSIN

CITY           SKY/WX    TMP DP  RH WIND       PRES   REMARKS
MANITOWISH WTR CLEAR     44  37  76 W8        29.82R
6HR MIN TEMP:  44; 6HR MAX TEMP:  51;

ARBOR VITAE    CLEAR     50  39  67 W8G18     29.82S
6HR MIN TEMP:  50; 6HR MAX TEMP:  54;

WOODRUFF       CLEAR     50  39  67 W8G18     29.82S
6HR MIN TEMP:  50; 6HR MAX TEMP:  54;

RHINELANDER    CLEAR     45  38  76 W10       29.83R
6HR MIN TEMP:  45; 6HR MAX TEMP:  53;

EAGLE RIVER    CLEAR     48  35  62 W12       29.79S
6HR MIN TEMP:  48; 6HR MAX TEMP:  53;

LAND O LAKES   CLEAR     46  38  74 W7        29.79S
6HR MIN TEMP:  46; 6HR MAX TEMP:  54;

PHILLIPS       CLEAR     44  38  79 W3        29.85S
6HR MIN TEMP:  44; 6HR MAX TEMP:  53;

TOMAHAWK       CLEAR     46  38  74 W7        29.85R
6HR MIN TEMP:  45; 6HR MAX TEMP:  53;

MEDFORD        CLEAR     45  40  82 W10       29.87S
6HR MIN TEMP:  45; 6HR MAX TEMP:  54;

MERRILL        CLEAR     48  41  77 W8        29.85S
6HR MIN TEMP:  46; 6HR MAX TEMP:  55;

$$

WIZ029-030-035-036-043>047-251300-
CENTRAL WISCONSIN

CITY           SKY/WX    TMP DP  RH WIND       PRES   REMARKS
WAUSAU         CLEAR     48  45  89 W9        29.85R
6HR MIN TEMP:  48; 6HR MAX TEMP:  56;

MOSINEE        CLEAR     46  46 100 W7        29.88R
MARSHFIELD     CLEAR     48  42  80 W8        29.89R
6HR MIN TEMP:  48; 6HR MAX TEMP:  56;

STEVENS POINT  CLEAR     49  43  80 W7        29.87S
6HR MIN TEMP:  49; 6HR MAX TEMP:  55; 6HR PCP:  0.02;

WAUPACA        CLEAR     52  49  91 W6        29.86R
6HR MIN TEMP:  52; 6HR MAX TEMP:  59;

WAUTOMA        CLOUDY    51  48  89 W6        29.89R
6HR MIN TEMP:  51; 6HR MAX TEMP:  56;

WISC RAPIDS    CLEAR     49  44  83 NW7       29.89S
6HR MIN TEMP:  49; 6HR MAX TEMP:  55;

CAMP DOUGLAS   NOT AVBL
$$

WIZ011>013-019>022-031-037>040-048>050-251300-
NORTHEAST WISCONSIN

CITY           SKY/WX    TMP DP  RH WIND       PRES   REMARKS
ANTIGO         CLEAR     46  42  85 W9        29.83S
6HR MIN TEMP:  46; 6HR MAX TEMP:  54;

SHAWANO        CLEAR     53  49  86 W3        29.83R
6HR MIN TEMP:  53; 6HR MAX TEMP:  58;

OCONTO         CLEAR     51  51  99 W8        29.80R
6HR MIN TEMP:  51; 6HR MAX TEMP:  55;

STURGEON BAY   CLEAR     54  48  82 W13       29.79R
6HR MIN TEMP:  54; 6HR MAX TEMP:  55;

GREEN BAY      CLEAR     53  51  93 W8        29.82S FOG
6HR MIN TEMP:  52; 6HR MAX TEMP:  57;

MANITOWOC      PTCLDY    55  52  89 W12       29.83R
6HR MIN TEMP:  52; 6HR MAX TEMP:  57;

APPLETON       PTCLDY    50  48  93 W8        29.84S FOG
CLINTONVILLE   CLEAR     52  48  87 W8        29.84R
OSHKOSH        CLEAR     53  51  93 W6        29.85R FOG
6HR MIN TEMP:  53; 6HR MAX TEMP:  57;

$$

WIZ032>034-041-042-053>061-251300-
SOUTHWEST WISCONSIN

CITY           SKY/WX    TMP DP  RH WIND       PRES   REMARKS
LA CROSSE      FOG       44  43  96 CALM      29.95R VSB 1/4
6HR MIN TEMP:  43; 6HR MAX TEMP:  58;

SPARTA         CLEAR     43  42  96 W3        29.93F
6HR MIN TEMP:  42; 6HR MAX TEMP:  57;

VIROQUA        CLEAR     50  48  93 W7        29.95R
6HR MIN TEMP:  50; 6HR MAX TEMP:  57;

BOSCOBEL       FOG       50  49  96 SW6       29.95R VSB 1/4
6HR MIN TEMP:  50; 6HR MAX TEMP:  60;

PRAIRIE DU CHI FOG       48  47  95 CALM      29.97R VSB 1/2
6HR MIN TEMP:  48; 6HR MAX TEMP:  60;

PLATTEVILLE    CLEAR     53  51  95 CALM      29.96R
6HR MIN TEMP:  52; 6HR MAX TEMP:  59;

$$

WIZ056-057-062-063-064-067-068-251300-
SOUTH CENTRAL WISCONSIN

CITY           SKY/WX    TMP DP  RH WIND       PRES   REMARKS
REEDSBURG      CLEAR     51  49  93 CALM      29.92R
6HR MIN TEMP:  51; 6HR MAX TEMP:  58;

BARABOO/DELLS  CLEAR     52  47  84 W6        29.92R
6HR MIN TEMP:  52; 6HR MAX TEMP:  57;

LONE ROCK      HAZE      56  51  84 W6        29.93S VSB 1/4
6HR MIN TEMP:  56; 6HR MAX TEMP:  63;

MINERAL POINT  CLEAR     52  52 100 NW5       29.94R FOG
MADISON        PTCLDY    54  52  93 W5        29.90S
6HR MIN TEMP:  53; 6HR MAX TEMP:  59;

MIDDLETON      CLEAR     54  54  99 W7        29.92R
6HR MIN TEMP:  54; 6HR MAX TEMP:  59;

WATERTOWN      CLEAR     52  52 100 W3        29.89R FOG
6HR MIN TEMP:  47; 6HR MAX TEMP:  55;

MONROE         CLEAR     54  54 100 W10       29.93R FOG
JANESVILLE     CLEAR     54  52  94 W7        29.91S FOG
$$

WIZ051-052-058>065-066-070>072-251300-
SOUTHEAST WISCONSIN

CITY           SKY/WX    TMP DP  RH WIND       PRES   REMARKS
MILWAUKEE      PTCLDY    56  52  86 W9        29.88S
6HR MIN TEMP:  55; 6HR MAX TEMP:  57;

WAUKESHA       CLEAR     54  52  94 W9        29.89S FOG
MILWAUKEE/TIMM CLEAR     55  52  88 W9        29.88R FOG
RACINE         CLEAR     54  52  93 W9        29.88S FOG
6HR MIN TEMP:  53; 6HR MAX TEMP:  57;

BURLINGTON     CLEAR     53  52  97 W8        29.90R FOG
6HR MIN TEMP:  50; 6HR MAX TEMP:  54;

KENOSHA        CLEAR     55  53  93 W13       29.88R FOG
6HR MIN TEMP:  51; 6HR MAX TEMP:  57;

FOND DU LAC    CLEAR     54  50  86 W10       29.87R
6HR MIN TEMP:  51; 6HR MAX TEMP:  56;

SHEBOYGAN      CLEAR     55  51  86 W10       29.85R
6HR MIN TEMP:  47; 6HR MAX TEMP:  56;

WEST BEND      CLEAR     54  50  87 W10       29.87R
JUNEAU         CLEAR     52  50  93 W3        29.90R FOG
6HR MIN TEMP:  48; 6HR MAX TEMP:  55;

$$

LSZ147-162-251300-
LAKE SUPERIOR

STATION/POSITION TIME  TEMP    WIND        PRES    WAVE
                       AIR SEA DIR/SP/G            HT/PER
                 (UTC) (F)     (DEG/KT/KT) (MB)    (FT/S)
W MID LAKE BUOY  1150   51 46  270/ 21/ 25 1006.1R   4/ 5
DEVILS ISLAND    1200   52     270/ 20/ 25 1009.4R
PORT WING        1100   53     260/ 12/ 17 1010.8
SAXON HARBOR     1100   54     230/  7/ 12 1009.5
$$

LMZ867-665-643>646-251300-
LAKE MICHIGAN

STATION/POSITION TIME  TEMP    WIND        PRES    WAVE



USA.gov is the U.S. government's official web portal to all federal, state and local government web resources and services.